When you browse on this site, cookies collect data to enhance your experience and personalize the content and advertising you see.
Visit our Privacy Policy to learn more. By continuing to use the site, you agree to this use of cookies and data.
  • In France
  • List of Countries
  • For 7 days
  • Water Temperature
  • Weather Map
  • Weather Widgets
  • user-avatar
    Login

    Hourly Weather Duchan

    Today, 30 March, Monday

    Time Temperature Precipitation Wind Pressure Humidity
    00:00 +23°C° 0 mm 9 mps 753 mmHg 58%
    01:00 +23°C° 0 mm 8 mps 753 mmHg 60%
    02:00 +23°C° 0 mm 7 mps 752 mmHg 61%
    03:00 +22°C° 0 mm 8 mps 752 mmHg 61%
    04:00 +22°C° 0 mm 8 mps 753 mmHg 63%
    05:00 +22°C° 0 mm 8 mps 754 mmHg 65%
    06:00 +22°C° 0 mm 7 mps 755 mmHg 66%
    07:00 +23°C° 0 mm 7 mps 755 mmHg 56%
    08:00 +24°C° 0 mm 7 mps 756 mmHg 45%
    09:00 +27°C° 0 mm 7 mps 756 mmHg 34%
    10:00 +27°C° 0 mm 7 mps 756 mmHg 32%
    11:00 +28°C° 0 mm 7 mps 756 mmHg 29%
    12:00 +28°C° 0 mm 7 mps 756 mmHg 27%
    13:00 +28°C° 0 mm 7 mps 756 mmHg 26%
    14:00 +28°C° 0 mm 7 mps 755 mmHg 24%
    15:00 +28°C° 0 mm 7 mps 755 mmHg 23%
    16:00 +27°C° 0 mm 7 mps 755 mmHg 26%
    17:00 +26°C° 0 mm 7 mps 756 mmHg 28%
    18:00 +24°C° 0 mm 6 mps 756 mmHg 31%
    19:00 +23°C° 0 mm 5 mps 756 mmHg 34%
    20:00 +22°C° 0 mm 4 mps 757 mmHg 38%
    21:00 +22°C° 0 mm 3 mps 757 mmHg 41%
    22:00 +22°C° 0 mm 3 mps 757 mmHg 42%
    23:00 +21°C° 0 mm 3 mps 757 mmHg 43%

    Tomorrow, 31 March, Tuesday

    Time Temperature Precipitation Wind Pressure Humidity
    00:00 +21°C° 0 mm 2 mps 757 mmHg 44%
    01:00 +21°C° 0 mm 3 mps 757 mmHg 46%
    02:00 +20°C° 0 mm 3 mps 757 mmHg 48%
    03:00 +20°C° 0 mm 3 mps 756 mmHg 49%
    04:00 +20°C° 0 mm 3 mps 757 mmHg 49%
    05:00 +20°C° 0 mm 3 mps 758 mmHg 50%
    06:00 +20°C° 0 mm 3 mps 758 mmHg 50%
    07:00 +22°C° 0 mm 3 mps 759 mmHg 43%
    08:00 +25°C° 0 mm 4 mps 759 mmHg 37%
    09:00 +26°C° 0 mm 4 mps 759 mmHg 31%
    10:00 +27°C° 0 mm 4 mps 759 mmHg 28%
    11:00 +28°C° 0 mm 4 mps 759 mmHg 26%
    12:00 +29°C° 0 mm 4 mps 759 mmHg 23%
    13:00 +29°C° 0 mm 3 mps 758 mmHg 23%
    14:00 +29°C° 0 mm 3 mps 758 mmHg 22%
    15:00 +29°C° 0 mm 3 mps 757 mmHg 21%
    16:00 +28°C° 0 mm 3 mps 758 mmHg 23%
    17:00 +27°C° 0 mm 3 mps 758 mmHg 25%
    18:00 +26°C° 0 mm 2 mps 758 mmHg 27%
    19:00 +26°C° 0 mm 2 mps 758 mmHg 29%
    20:00 +25°C° 0 mm 3 mps 758 mmHg 32%
    21:00 +24°C° 0 mm 3 mps 759 mmHg 34%
    22:00 +24°C° 0 mm 3 mps 759 mmHg 36%
    23:00 +24°C° 0 mm 3 mps 758 mmHg 38%

    Day after tomorrow, 1 April, Wednesday

    Time Temperature Precipitation Wind Pressure Humidity
    00:00 +22°C° 0 mm 3 mps 758 mmHg 39%
    01:00 +22°C° 0 mm 3 mps 758 mmHg 39%
    02:00 +23°C° 0 mm 2 mps 757 mmHg 38%
    03:00 +22°C° 0 mm 1 mps 756 mmHg 37%
    04:00 +22°C° 0 mm 1 mps 757 mmHg 38%
    05:00 +22°C° 0 mm 1 mps 757 mmHg 38%
    06:00 +20°C° 0 mm 0 mps 757 mmHg 38%
    07:00 +24°C° 0 mm 1 mps 757 mmHg 33%
    08:00 +26°C° 0 mm 1 mps 758 mmHg 28%
    09:00 +28°C° 0 mm 1 mps 758 mmHg 24%
    10:00 +30°C° 0 mm 1 mps 758 mmHg 21%
    11:00 +31°C° 0 mm 1 mps 758 mmHg 18%
    12:00 +33°C° 0 mm 1 mps 758 mmHg 15%
    13:00 +33°C° 0 mm 1 mps 757 mmHg 15%
    14:00 +34°C° 0 mm 2 mps 756 mmHg 15%
    15:00 +34°C° 0 mm 2 mps 755 mmHg 15%
    16:00 +32°C° 0 mm 2 mps 755 mmHg 16%
    17:00 +31°C° 0 mm 2 mps 755 mmHg 18%
    18:00 +30°C° 0 mm 3 mps 756 mmHg 19%
    19:00 +30°C° 0 mm 3 mps 756 mmHg 22%
    20:00 +29°C° 0 mm 4 mps 756 mmHg 24%
    21:00 +29°C° 0 mm 5 mps 756 mmHg 26%
    22:00 +28°C° 0 mm 6 mps 755 mmHg 29%
    23:00 +28°C° 0 mm 7 mps 755 mmHg 31%

    2 April, Thursday

    Time Temperature Precipitation Wind Pressure Humidity
    00:00 +27°C° 0 mm 7 mps 754 mmHg 33%
    01:00 +27°C° 0 mm 7 mps 754 mmHg 35%
    02:00 +26°C° 0 mm 6 mps 754 mmHg 37%
    03:00 +26°C° 0 mm 5 mps 753 mmHg 39%
    04:00 +25°C° 0 mm 5 mps 754 mmHg 39%
    05:00 +25°C° 0 mm 5 mps 754 mmHg 40%
    06:00 +25°C° 0 mm 4 mps 754 mmHg 40%
    07:00 +27°C° 0 mm 5 mps 755 mmHg 34%
    08:00 +30°C° 0 mm 5 mps 755 mmHg 27%
    09:00 +33°C° 0 mm 6 mps 755 mmHg 20%
    10:00 +35°C° 0 mm 6 mps 755 mmHg 17%
    11:00 +36°C° 0 mm 5 mps 754 mmHg 15%
    12:00 +39°C° 0 mm 5 mps 754 mmHg 12%
    13:00 +40°C° 0 mm 5 mps 753 mmHg 11%
    14:00 +40°C° 0 mm 5 mps 753 mmHg 10%
    15:00 +41°C° 0 mm 4 mps 752 mmHg 10%
    16:00 +39°C° 0 mm 5 mps 752 mmHg 13%
    17:00 +36°C° 0 mm 6 mps 752 mmHg 16%
    18:00 +34°C° 0 mm 7 mps 752 mmHg 19%
    19:00 +33°C° 0 mm 7 mps 752 mmHg 21%
    20:00 +32°C° 0 mm 8 mps 752 mmHg 23%
    21:00 +31°C° 0 mm 8 mps 753 mmHg 26%
    22:00 +30°C° 0 mm 7 mps 753 mmHg 27%
    23:00 +29°C° 0 mm 5 mps 752 mmHg 29%

    3 April, Friday

    Time Temperature Precipitation Wind Pressure Humidity
    00:00 +29°C° 0 mm 4 mps 752 mmHg 30%
    01:00 +28°C° 0 mm 4 mps 752 mmHg 31%
    02:00 +28°C° 0 mm 4 mps 752 mmHg 32%
    03:00 +27°C° 0 mm 3 mps 752 mmHg 32%
    04:00 +27°C° 0 mm 3 mps 752 mmHg 32%
    05:00 +27°C° 0 mm 2 mps 752 mmHg 32%
    06:00 +27°C° 0 mm 2 mps 753 mmHg 32%
    07:00 +29°C° 0 mm 2 mps 753 mmHg 28%
    08:00 +31°C° 0 mm 3 mps 754 mmHg 25%
    09:00 +34°C° 0 mm 3 mps 754 mmHg 21%
    10:00 +35°C° 0 mm 3 mps 754 mmHg 21%
    11:00 +36°C° 0 mm 4 mps 754 mmHg 20%
    12:00 +37°C° 0 mm 4 mps 753 mmHg 20%
    13:00 +36°C° 0 mm 4 mps 753 mmHg 21%
    14:00 +36°C° 0 mm 5 mps 753 mmHg 21%
    15:00 +36°C° 0 mm 5 mps 752 mmHg 22%
    16:00 +35°C° 0 mm 5 mps 752 mmHg 26%
    17:00 +33°C° 0 mm 6 mps 753 mmHg 29%
    18:00 +32°C° 0 mm 6 mps 753 mmHg 33%
    19:00 +30°C° 0 mm 6 mps 753 mmHg 36%
    20:00 +29°C° 0 mm 6 mps 754 mmHg 39%
    21:00 +28°C° 0 mm 5 mps 754 mmHg 41%
    22:00 +27°C° 0 mm 4 mps 754 mmHg 43%
    23:00 +27°C° 0 mm 3 mps 754 mmHg 44%

    4 April, Saturday

    Time Temperature Precipitation Wind Pressure Humidity
    00:00 +26°C° 0 mm 2 mps 754 mmHg 45%
    01:00 +26°C° 0 mm 2 mps 754 mmHg 46%
    02:00 +25°C° 0 mm 2 mps 753 mmHg 48%
    03:00 +25°C° 0 mm 1 mps 753 mmHg 49%
    04:00 +25°C° 0 mm 1 mps 754 mmHg 49%
    05:00 +25°C° 0 mm 1 mps 754 mmHg 48%
    06:00 +25°C° 0 mm 2 mps 755 mmHg 48%
    07:00 +26°C° 0 mm 2 mps 755 mmHg 43%
    08:00 +28°C° 0 mm 2 mps 755 mmHg 37%
    09:00 +30°C° 0 mm 2 mps 756 mmHg 32%
    10:00 +32°C° 0 mm 2 mps 756 mmHg 28%
    11:00 +34°C° 0 mm 2 mps 755 mmHg 25%
    12:00 +36°C° 0 mm 3 mps 755 mmHg 22%
    13:00 +36°C° 0 mm 3 mps 755 mmHg 22%
    14:00 +36°C° 0 mm 4 mps 754 mmHg 22%
    15:00 +36°C° 0 mm 5 mps 754 mmHg 22%
    16:00 +35°C° 0 mm 5 mps 754 mmHg 24%
    17:00 +33°C° 0 mm 4 mps 754 mmHg 26%
    18:00 +32°C° 0 mm 4 mps 754 mmHg 27%
    19:00 +30°C° 0 mm 4 mps 755 mmHg 29%
    20:00 +30°C° 0 mm 4 mps 755 mmHg 30%
    21:00 +29°C° 0 mm 4 mps 755 mmHg 31%
    22:00 +28°C° 0 mm 4 mps 755 mmHg 33%
    23:00 +27°C° 0 mm 4 mps 755 mmHg 34%
    Show more